Mukilteo, WA

10:57 PM PDT on July 29, 2016 (GMT -0700)
Snohomish County

Weather History for KPAE - October, 2012

Change the Weather History Date:

Friday, October 12, 2012

  Actual Average Record
Temperature  
Mean Temperature 50 °F -  
Max Temperature 57 °F 60 °F 80 °F (1991)
Min Temperature 44 °F 42 °F 31 °F (1972)
Degree Days  
Heating Degree Days 16    
Moisture  
Dew Point 47 °F    
Average Humidity 86    
Maximum Humidity 100    
Minimum Humidity 75    
Precipitation  
Precipitation 0.07 in - - ()
Sea Level Pressure  
Sea Level Pressure 29.88 in    
Wind  
Wind Speed 9 mph (South)    
Max Wind Speed 22 mph    
Max Gust Speed 31 mph    
Visibility 7 miles    
Events Rain    
Averages and records for this station are not official NWS values.
T = Trace of Precipitation, MM = Missing Value Source: NWS Daily Summary

Daily Weather History Graph

Daily Weather History Graph

Search for Another Location

Airport or City:

Trip Planner

Search our weather history database for the weather conditions in past years. The results will help you decide how hot, cold, wet, or windy it might be!

Date:

Astronomy

Oct. 12, 2012 Rise Set
Actual Time 7:24 AM PDT 6:25 PM PDT
Civil Twilight 6:53 AM PDT 6:56 PM PDT
Nautical Twilight 6:17 AM PDT 7:32 PM PDT
Astronomical Twilight 5:41 AM PDT 8:08 PM PDT
Moon 4:02 AM PDT (10/12) 4:47 PM PDT (10/12)
Length of Visible Light 12h 02m
Length of Day
11h 00m
Waning Crescent, 10% of the Moon is Illuminated
Oct 12
Waning Crescent
Oct 15
New
Oct 21
First Quarter
Oct 29
Full
Nov 6
Last Quarter

Hourly Weather History & Observations

Time (PDT) Temp. Windchill Dew Point Humidity Pressure Visibility Wind Dir Wind Speed Gust Speed Precip Events Conditions
12:53 AM 44.6 °F - 42.8 °F 93% 29.82 in 4.0 mi Calm Calm - N/A   Clear
1:32 AM 46.4 °F - 44.6 °F 93% 29.82 in 5.0 mi Calm Calm - N/A   Mostly Cloudy
1:43 AM 46.4 °F - 44.6 °F 93% 29.83 in 4.0 mi Calm Calm - N/A   Overcast
1:53 AM 46.9 °F - 44.1 °F 90% 29.83 in 5.0 mi Calm Calm - N/A   Overcast
2:18 AM 46.4 °F 43.5 °F 44.6 °F 93% 29.83 in 4.0 mi South 5.8 mph - N/A   Overcast
2:40 AM 46.4 °F 41.9 °F 44.6 °F 93% 29.84 in 2.0 mi SSW 9.2 mph - N/A   Overcast
2:49 AM 46.4 °F 41.5 °F 44.6 °F 93% 29.84 in 1.2 mi SSW 10.4 mph - N/A   Overcast
2:53 AM 46.9 °F - 45.0 °F 93% 29.84 in 1.0 mi SSW 10.4 mph - N/A   Overcast
3:01 AM 46.4 °F 41.5 °F 46.4 °F 100% 29.84 in 0.8 mi South 10.4 mph - N/A   Mist
3:20 AM 46.4 °F 41.9 °F 46.4 °F 100% 29.84 in 1.5 mi SSW 9.2 mph - N/A   Overcast
3:29 AM 48.2 °F - 46.4 °F 93% 29.85 in 3.0 mi SSW 9.2 mph - N/A   Overcast
3:38 AM 48.2 °F - 46.4 °F 93% 29.85 in 2.5 mi South 9.2 mph - N/A   Overcast
3:51 AM 48.2 °F - 46.4 °F 93% 29.85 in 4.0 mi South 9.2 mph - N/A   Overcast
3:53 AM 48.9 °F - 46.0 °F 90% 29.85 in 4.0 mi SSE 11.5 mph - N/A   Overcast
4:16 AM 48.2 °F - 46.4 °F 93% 29.85 in 6.0 mi SSE 10.4 mph - N/A   Overcast
4:44 AM 48.2 °F - 46.4 °F 93% 29.86 in 8.0 mi SSE 9.2 mph - N/A   Overcast
4:53 AM 50.0 °F - 46.0 °F 86% 29.87 in 8.0 mi SSE 6.9 mph - N/A   Overcast
5:53 AM 48.9 °F - 46.0 °F 90% 29.85 in 6.0 mi SSE 10.4 mph - 0.00 in Rain Light Rain
6:02 AM 48.2 °F - 46.4 °F 93% 29.84 in 6.0 mi SSE 9.2 mph 18.4 mph 0.00 in Rain Light Rain
6:13 AM 48.2 °F - 46.4 °F 93% 29.85 in 5.0 mi SSE 12.7 mph - 0.00 in   Overcast
6:53 AM 50.0 °F - 46.9 °F 89% 29.87 in 3.0 mi SSE 9.2 mph - 0.00 in Rain Light Rain
7:03 AM 50.0 °F - 46.4 °F 87% 29.86 in 5.0 mi SSE 10.4 mph - 0.00 in Rain Light Rain
7:53 AM 50.0 °F - 46.9 °F 89% 29.87 in 5.0 mi SSE 11.5 mph 17.3 mph 0.00 in   Overcast
8:53 AM 50.0 °F - 46.4 °F 87% 29.88 in 6.0 mi SSE 9.2 mph - N/A   Overcast
9:53 AM 53.1 °F - 48.0 °F 83% 29.90 in 9.0 mi SSE 15.0 mph - 0.01 in   Overcast
10:53 AM 54.0 °F - 48.0 °F 80% 29.90 in 9.0 mi SSE 15.0 mph - N/A   Overcast
11:26 AM 55.4 °F - 48.2 °F 77% 29.90 in 10.0 mi SSE 15.0 mph - N/A   Mostly Cloudy
11:53 AM 54.0 °F - 48.0 °F 80% 29.91 in 10.0 mi SSE 15.0 mph 23.0 mph N/A   Overcast
12:53 PM 55.9 °F - 48.0 °F 75% 29.91 in 10.0 mi SSE 13.8 mph - N/A   Overcast
1:53 PM 55.0 °F - 48.9 °F 80% 29.91 in 10.0 mi South 13.8 mph 21.9 mph N/A   Overcast
2:00 PM 55.4 °F - 48.2 °F 77% 29.90 in 10.0 mi South 16.1 mph 21.9 mph N/A   Overcast
2:53 PM 55.9 °F - 48.9 °F 77% 29.91 in 10.0 mi South 12.7 mph 25.3 mph N/A   Overcast
3:53 PM 55.9 °F - 48.9 °F 77% 29.91 in 10.0 mi South 16.1 mph - N/A   Overcast
4:39 PM 55.4 °F - 48.2 °F 77% 29.90 in 10.0 mi South 17.3 mph 26.5 mph N/A   Scattered Clouds
4:53 PM 55.9 °F - 48.9 °F 77% 29.90 in 10.0 mi South 15.0 mph - N/A   Scattered Clouds
5:09 PM 55.4 °F - 48.2 °F 77% 29.90 in 10.0 mi SSE 16.1 mph - N/A   Mostly Cloudy
5:27 PM 55.4 °F - 48.2 °F 77% 29.91 in 10.0 mi South 11.5 mph - N/A   Mostly Cloudy
5:35 PM 55.4 °F - 48.2 °F 77% 29.91 in 10.0 mi SSE 12.7 mph - N/A   Mostly Cloudy
5:53 PM 55.9 °F - 48.0 °F 75% 29.90 in 10.0 mi SSE 17.3 mph 23.0 mph N/A   Mostly Cloudy
6:53 PM 55.4 °F - 48.2 °F 77% 29.90 in 10.0 mi SSE 16.1 mph 23.0 mph N/A   Mostly Cloudy
7:53 PM 54.0 °F - 50.0 °F 86% 29.92 in 5.0 mi South 16.1 mph 27.6 mph 0.04 in Rain Light Rain
8:00 PM 53.6 °F - 50.0 °F 88% 29.92 in 9.0 mi South 16.1 mph 23.0 mph 0.01 in Rain Light Rain
8:53 PM 54.0 °F - 50.0 °F 86% 29.94 in 10.0 mi South 20.7 mph 26.5 mph 0.01 in   Mostly Cloudy
9:53 PM 53.1 °F - 50.0 °F 89% 29.94 in 10.0 mi South 15.0 mph - 0.00 in Rain Light Rain
10:02 PM 53.6 °F - 50.0 °F 88% 29.94 in 10.0 mi South 15.0 mph 21.9 mph 0.00 in Rain Light Rain
10:42 PM 53.6 °F - 50.0 °F 88% 29.96 in 10.0 mi South 12.7 mph 21.9 mph 0.01 in   Overcast
10:53 PM 54.0 °F - 50.0 °F 86% 29.97 in 10.0 mi South 16.1 mph 24.2 mph 0.01 in   Overcast
11:39 PM 53.6 °F - 48.2 °F 82% 29.96 in 10.0 mi South 21.9 mph 31.1 mph N/A   Scattered Clouds
11:53 PM 53.1 °F - 48.9 °F 86% 29.97 in 10.0 mi South 19.6 mph 29.9 mph N/A   Scattered Clouds